Location: Newark
(45.9456°N, 15.4064°E)
Time: 18:43:46
(UTC+00:00)

SR - Pass Details

Date: 27 January 2020
Orbit: 575 x 880 km, 66.7° (Epoch: 26 February)

Event Time Altitude Azimuth Distance (km) Brightness Sun altitude
Rises 18:59:54 0° 158° (SSE) 3,395 - -31.9°
Reaches altitude 10° 19:03:25 10° 136° (SE) 2,501 - -32.5°
Maximum altitude 19:06:34 15° 103° (ESE) 2,187 - -33.1°
Drops below altitude 10° 19:09:44 10° 70° (ENE) 2,541 - -33.6°
Sets 19:13:20 0° 48° (NE) 3,481 - -34.2°
